Location: Chervonnoye
(48.6000°N, 34.4000°E)
Time: 06:40:09
(UTC+00:00)

USA 215 - Pass Details

Date: 23 November 2020
Orbit: 1098 x 1110 km, 123.0° (Epoch: 14 January)

Event Time Altitude Azimuth Distance (km) Brightness Sun altitude
Exits shadow 15:44:55 25° 59° (ENE) 2,086 4.2 -17.8°
Maximum altitude 15:49:05 80° 143° (SE) 1,131 3.2 -18.5°
Drops below altitude 10° 15:55:41 10° 231° (SW) 2,969 6.4 -19.6°
Sets 15:58:09 0° 233° (SW) 3,925 7.2 -20.0°
